Showing default

LT-1 01A, 51284

Orbit data source: Space-Track

LT-1 01A, 51284 is a payload satellite owned by SAST (CN) in SSO that was launched on Tue, 25 Jan 2022 UTC via a CHANG ZHENG 4C launch vehicle from the Jiuquan Satellite Launch Center, China (JSC). Payload-class satellites include a variety of spacecraft equipped with specific instruments for various scientific and technological missions. These include communications satellites like Starlink; space stations such as the ISS; scientific satellites like the Hubble; Earth observation satellites from companies like Planet Labs, Umbra, and HawkEye 360; GPS; miniature CubeSats for education and research; and military/defense satellites.

Loading next visibility...
Identifier
51284, 2022-007A
Orbit
SSO
Country
Flag of CNCN / PRC
Related business
Manufacturer
SAST
Mission
Operational Civil Radar Imaging
Bus & Motor
LSAR, AOCS 20N
Mass
3,200 kg wet, ~2,500 kg dry
Launch date (UTC)
2022-01-25 (4 years ago)
Launch vehicle
CHANG ZHENG 4C
Launch site
Jiuquan Satellite Launch Center, China (JSC)
Object type
Payload
Rocket body
Debris
Shape & HBR
Box + 4 Pan, 5.0 m
Radar Cross Section
14.608 m², Large (>1 m²)

Expand to show TLE details & history
Last TLE update: 13 hours ago

TLE from 13 hours ago
0 LT-1 01A
1 51284U 22007A   25258.62655200  .00000687  00000-0  80013-4 0  9996
2 51284  97.8117 264.9971 0001604  89.7932 270.3468 14.88418554197636
Epoch: 2025-09-15T15:02Z
TLE epoch observation values (Epoch: 2025-09-15T15:02:14.092Z)
Latitude
-0.0001°
Longitude
44.6099°
Altitude
605.905 km
Speed
7.556 km/s
True Right ascension
17h 39m 59s
True Declination
0° 00' 00"
Sunlit
Object was in daylight at epoch
Visualization orbit readout
Latitude
Unknown
Longitude
Unknown
Altitude
Unknown
Speed
Unknown
Apparent Right ascension
Unknown
Apparent Declination
Unknown
Sunlit
N/A
Visualization observer readout
Local Sidereal Time
20:35:49
Azimuth
Unknown
Elevation
Unknown
Doppler factor
Unknown
Orbital elements
Apogee altitude
601.021 km
Perigee altitude
598.783 km
Semi-major axis
6,978.039 km
Eccentricity
0.00016
Inclination
97.8117°
RAAN
264.9971°
Arg. of periapsis
89.7932°
True anomaly
270.32842°
Mean anomaly
270.3468°
Eccentric anomaly
270.33761°
Mean motion
3.72343 °/min
Orbital period
96.69 mins
BSTAR
0.000080013
Loading maneuver chart data...
Computing Atmospheric mass density...
Loading historical data...
Loading historical data...
Loading historical data...
Loading historical data...
Loading historical data...
Loading historical data...
Loading historical data...
Other satellites on launch #7 in the year 2022 (2022-01-25 UTC)

Documentation

Showing up to 5 results
|